Data No,UTC Date,UTC Time,Latitude,Longitude,Course(deg),Temp(degC),Sal(psu)
5896,2006/11/27,2:37:09, 20-42.726N,119-59.926E,218.7,28.1646,34.0652
5897,2006/11/27,2:38:09, 20-42.555N,119-59.782E,218.5,28.1712,34.0672
5898,2006/11/27,2:39:09, 20-42.390N,119-59.640E,219.5,28.175,34.0685
5899,2006/11/27,2:40:09, 20-42.223N,119-59.493E,220.6,28.1738,34.0685
5900,2006/11/27,2:41:09, 20-42.053N,119-59.346E,219.2,28.175,34.0683
5901,2006/11/27,2:42:09, 20-41.887N,119-59.198E,217.7,28.1716,34.0679
5902,2006/11/27,2:43:09, 20-41.720N,119-59.049E,216.9,28.1734,34.0676
5903,2006/11/27,2:44:09, 20-41.555N,119-58.902E,221.6,28.1708,34.0659
5904,2006/11/27,2:45:09, 20-41.385N,119-58.752E,223.2,28.1778,34.0652
5905,2006/11/27,2:46:09, 20-41.221N,119-58.601E,219.8,28.1811,34.0645
5906,2006/11/27,2:47:09, 20-41.058N,119-58.452E,219.6,28.1738,34.0625
5907,2006/11/27,2:48:09, 20-40.891N,119-58.300E,223.9,28.1718,34.0603
5908,2006/11/27,2:49:09, 20-40.720N,119-58.148E,219.5,28.165,34.0584
5909,2006/11/27,2:50:09, 20-40.553N,119-57.997E,223.7,28.1743,34.0565
5910,2006/11/27,2:51:09, 20-40.393N,119-57.840E,220.3,28.1626,34.0557
5911,2006/11/27,2:52:09, 20-40.234N,119-57.681E,222.1,28.1542,34.0546
5912,2006/11/27,2:53:09, 20-40.074N,119-57.524E,221.5,28.1565,34.0538
5913,2006/11/27,2:54:09, 20-39.911N,119-57.369E,222.4,28.1535,34.0547
5914,2006/11/27,2:55:09, 20-39.750N,119-57.214E,223.9,28.1565,34.0544
5915,2006/11/27,2:56:09, 20-39.588N,119-57.060E,220.9,28.157,34.0548
5916,2006/11/27,2:57:09, 20-39.430N,119-56.903E,225,28.1644,34.0545
5917,2006/11/27,2:58:09, 20-39.273N,119-56.744E,226.1,28.1571,34.0539
5918,2006/11/27,2:59:09, 20-39.114N,119-56.588E,222.7,28.1475,34.0527
5919,2006/11/27,3:00:09, 20-38.956N,119-56.432E,226.6,28.1508,34.0511
5920,2006/11/27,3:01:09, 20-38.798N,119-56.276E,223.2,28.1476,34.0505
5921,2006/11/27,3:02:09, 20-38.640N,119-56.118E,221,28.1446,34.0494
5922,2006/11/27,3:03:09, 20-38.482N,119-55.965E,223.6,28.138,34.0507
5923,2006/11/27,3:04:09, 20-38.320N,119-55.805E,223.2,28.1377,34.0506
5924,2006/11/27,3:05:09, 20-38.162N,119-55.648E,224.5,28.1432,34.0507
5925,2006/11/27,3:06:09, 20-38.003N,119-55.491E,223.1,28.1453,34.0508
5926,2006/11/27,3:07:09, 20-37.849N,119-55.335E,222.9,28.1263,34.0514
5927,2006/11/27,3:08:09, 20-37.688N,119-55.173E,222.3,28.134,34.0527
5928,2006/11/27,3:09:09, 20-37.529N,119-55.016E,224.2,28.1345,34.0566
5929,2006/11/27,3:10:09, 20-37.374N,119-54.858E,223.1,28.131,34.0605
5930,2006/11/27,3:11:09, 20-37.211N,119-54.696E,223.8,28.1454,34.0624
5931,2006/11/27,3:12:09, 20-37.052N,119-54.536E,221.2,28.1442,34.063
5932,2006/11/27,3:13:09, 20-36.891N,119-54.377E,224.7,28.1392,34.0619
5933,2006/11/27,3:14:09, 20-36.732N,119-54.215E,224.7,28.1506,34.0594
5934,2006/11/27,3:15:09, 20-36.572N,119-54.055E,222.2,28.1351,34.0572
5935,2006/11/27,3:16:09, 20-36.412N,119-53.894E,224.5,28.136,34.0553
5936,2006/11/27,3:17:09, 20-36.251N,119-53.735E,220.3,28.1392,34.0529
5937,2006/11/27,3:18:09, 20-36.091N,119-53.576E,224.6,28.125,34.0504
5938,2006/11/27,3:19:09, 20-35.932N,119-53.418E,224.9,28.1361,34.0483
5939,2006/11/27,3:20:09, 20-35.774N,119-53.260E,223.3,28.1402,34.0471
5940,2006/11/27,3:21:09, 20-35.614N,119-53.101E,224.3,28.153,34.0473
5941,2006/11/27,3:22:09, 20-35.455N,119-52.942E,225.6,28.144,34.0481
5942,2006/11/27,3:23:09, 20-35.297N,119-52.782E,222.6,28.1346,34.049
5943,2006/11/27,3:24:09, 20-35.138N,119-52.621E,223.2,28.1559,34.0486
5944,2006/11/27,3:25:09, 20-34.976N,119-52.461E,221.9,28.1437,34.0483
5945,2006/11/27,3:26:09, 20-34.813N,119-52.303E,219.5,28.1392,34.0482
5946,2006/11/27,3:27:09, 20-34.652N,119-52.144E,223.2,28.1472,34.0483
5947,2006/11/27,3:28:09, 20-34.492N,119-51.985E,221.1,28.1557,34.0493
5948,2006/11/27,3:29:09, 20-34.332N,119-51.827E,222.1,28.1524,34.0498
5949,2006/11/27,3:30:09, 20-34.171N,119-51.673E,220.8,28.1677,34.0501
5950,2006/11/27,3:31:09, 20-34.015N,119-51.518E,221.1,28.1578,34.0516
5951,2006/11/27,3:32:09, 20-33.861N,119-51.364E,225.5,28.1564,34.052
5952,2006/11/27,3:33:09, 20-33.707N,119-51.213E,219.2,28.1562,34.0531
5953,2006/11/27,3:34:09, 20-33.554N,119-51.064E,222.1,28.1402,34.0558
5954,2006/11/27,3:35:09, 20-33.401N,119-50.914E,224.5,28.1205,34.0628
5955,2006/11/27,3:36:09, 20-33.248N,119-50.764E,221.4,28.0804,34.0763
5956,2006/11/27,3:37:09, 20-33.094N,119-50.614E,222,28.0349,34.0965
5957,2006/11/27,3:38:09, 20-32.940N,119-50.462E,224,28.0144,34.1187
5958,2006/11/27,3:39:09, 20-32.786N,119-50.309E,223.7,28.0042,34.1358
5959,2006/11/27,3:40:09, 20-32.632N,119-50.153E,219.9,27.9941,34.1478
5960,2006/11/27,3:41:09, 20-32.477N,119-49.997E,224.9,27.9982,34.1545
5961,2006/11/27,3:42:09, 20-32.322N,119-49.840E,222.4,28.0303,34.1501
5962,2006/11/27,3:43:09, 20-32.167N,119-49.681E,222.7,28.0347,34.1369
5963,2006/11/27,3:44:09, 20-32.009N,119-49.522E,222.4,28.0562,34.1229
5964,2006/11/27,3:45:09, 20-31.851N,119-49.363E,223.7,28.0621,34.1099
5965,2006/11/27,3:46:09, 20-31.694N,119-49.203E,221.6,28.0681,34.1023
5966,2006/11/27,3:47:09, 20-31.538N,119-49.042E,221.4,28.0729,34.101
5967,2006/11/27,3:48:09, 20-31.381N,119-48.880E,226.6,28.0811,34.1
5968,2006/11/27,3:49:09, 20-31.222N,119-48.720E,222.2,28.0908,34.1006
5969,2006/11/27,3:50:09, 20-31.065N,119-48.560E,226.2,28.0945,34.1029
5970,2006/11/27,3:51:09, 20-30.908N,119-48.398E,223.8,28.091,34.1071
5971,2006/11/27,3:52:09, 20-30.750N,119-48.239E,219.5,28.0995,34.1118
5972,2006/11/27,3:53:09, 20-30.585N,119-48.090E,222.9,28.0881,34.1166
5973,2006/11/27,3:54:09, 20-30.419N,119-47.942E,221.1,28.0873,34.1229
5974,2006/11/27,3:55:09, 20-30.254N,119-47.793E,220.9,28.0899,34.1297
5975,2006/11/27,3:56:09, 20-30.090N,119-47.644E,223.2,28.076,34.1362
5976,2006/11/27,3:57:09, 20-29.927N,119-47.493E,221.1,28.0612,34.1433
5977,2006/11/27,3:58:09, 20-29.762N,119-47.345E,221.9,28.0544,34.1512
5978,2006/11/27,3:59:09, 20-29.598N,119-47.195E,221.2,28.057,34.1571
5979,2006/11/27,4:00:09, 20-29.434N,119-47.048E,220.4,28.0567,34.1613
5980,2006/11/27,4:01:09, 20-29.271N,119-46.903E,218.6,28.0861,34.1634
5981,2006/11/27,4:02:09, 20-29.108N,119-46.759E,219.1,28.0898,34.1625
5982,2006/11/27,4:03:09, 20-28.947N,119-46.615E,221.3,28.0792,34.1627
5983,2006/11/27,4:04:09, 20-28.787N,119-46.471E,222.6,28.085,34.1635
5984,2006/11/27,4:05:09, 20-28.626N,119-46.328E,218.7,28.0826,34.1645
5985,2006/11/27,4:06:09, 20-28.466N,119-46.186E,223.3,28.0494,34.1631
5986,2006/11/27,4:07:09, 20-28.306N,119-46.045E,219.8,28.0465,34.1645
5987,2006/11/27,4:08:09, 20-28.145N,119-45.903E,218.7,28.0296,34.1642
5988,2006/11/27,4:09:09, 20-27.985N,119-45.760E,222.4,28.0316,34.162
5989,2006/11/27,4:10:09, 20-27.827N,119-45.615E,219,28.0193,34.1588
5990,2006/11/27,4:11:09, 20-27.671N,119-45.471E,217.5,28.0103,34.1605
5991,2006/11/27,4:12:09, 20-27.514N,119-45.327E,220.7,28.0159,34.1641
5992,2006/11/27,4:13:09, 20-27.359N,119-45.183E,218.7,28.0439,34.168
5993,2006/11/27,4:14:09, 20-27.204N,119-45.040E,221.9,28.0486,34.17
5994,2006/11/27,4:15:09, 20-27.048N,119-44.897E,220.2,28.0315,34.1781
5995,2006/11/27,4:16:09, 20-26.895N,119-44.755E,220.3,28.0215,34.1882
5996,2006/11/27,4:17:09, 20-26.742N,119-44.612E,219.2,28.0207,34.1944
5997,2006/11/27,4:18:09, 20-26.590N,119-44.469E,220.9,28.0196,34.1966
5998,2006/11/27,4:19:09, 20-26.437N,119-44.325E,223.1,28.0112,34.197
5999,2006/11/27,4:20:09, 20-26.286N,119-44.179E,222.7,28.014,34.1955
6000,2006/11/27,4:21:09, 20-26.135N,119-44.034E,222.2,28.0038,34.1927
6001,2006/11/27,4:22:09, 20-25.983N,119-43.888E,221,27.9745,34.1877
6002,2006/11/27,4:23:09, 20-25.829N,119-43.745E,221,27.9759,34.1829
6003,2006/11/27,4:24:09, 20-25.677N,119-43.599E,221.8,27.9677,34.1778
6004,2006/11/27,4:25:09, 20-25.522N,119-43.456E,221.8,27.9498,34.1744
6005,2006/11/27,4:26:09, 20-25.371N,119-43.310E,220.6,27.9658,34.1687
6006,2006/11/27,4:27:09, 20-25.217N,119-43.166E,222.1,27.9584,34.1651
6007,2006/11/27,4:28:09, 20-25.063N,119-43.021E,221.2,27.9558,34.161
6008,2006/11/27,4:29:09, 20-24.909N,119-42.875E,222.4,27.9677,34.1586
6009,2006/11/27,4:30:09, 20-24.755N,119-42.731E,222.3,27.9793,34.1575
6010,2006/11/27,4:31:09, 20-24.601N,119-42.588E,222.3,27.9974,34.1553
6011,2006/11/27,4:32:09, 20-24.450N,119-42.443E,223.6,28.0153,34.1514
6012,2006/11/27,4:33:09, 20-24.297N,119-42.301E,222.4,28.0232,34.1478
6013,2006/11/27,4:34:09, 20-24.147N,119-42.157E,223.9,28.0371,34.1441
6014,2006/11/27,4:35:09, 20-23.997N,119-42.016E,222.8,28.0367,34.1399
6015,2006/11/27,4:36:09, 20-23.848N,119-41.875E,221.5,28.0369,34.1354
6016,2006/11/27,4:37:09, 20-23.699N,119-41.737E,221.7,28.0371,34.1355
6017,2006/11/27,4:38:09, 20-23.550N,119-41.600E,220.8,28.0414,34.1406
6018,2006/11/27,4:39:09, 20-23.400N,119-41.461E,218.2,28.0261,34.1482
6019,2006/11/27,4:40:09, 20-23.248N,119-41.325E,220.7,28.0132,34.1534
6020,2006/11/27,4:41:09, 20-23.099N,119-41.184E,224.4,28.0194,34.1533
6021,2006/11/27,4:42:09, 20-22.951N,119-41.044E,220.8,27.9938,34.1508
6022,2006/11/27,4:43:09, 20-22.802N,119-40.902E,219.7,27.9665,34.1515
6023,2006/11/27,4:44:09, 20-22.652N,119-40.759E,221.4,27.9514,34.1583
6024,2006/11/27,4:45:09, 20-22.503N,119-40.616E,223.3,27.9629,34.1638
6025,2006/11/27,4:46:09, 20-22.356N,119-40.470E,222.4,27.971,34.1606
6026,2006/11/27,4:47:09, 20-22.207N,119-40.327E,221,27.9829,34.1534
6027,2006/11/27,4:48:09, 20-22.059N,119-40.182E,221.6,28.0005,34.1462
6028,2006/11/27,4:49:09, 20-21.911N,119-40.037E,223.2,27.9953,34.1416
6029,2006/11/27,4:50:09, 20-21.765N,119-39.892E,222.5,28.0087,34.1373
6030,2006/11/27,4:51:09, 20-21.619N,119-39.745E,224.8,28.0169,34.1322
6031,2006/11/27,4:52:09, 20-21.473N,119-39.598E,225.5,28.0123,34.1288
6032,2006/11/27,4:53:09, 20-21.325N,119-39.452E,224.7,28.0185,34.1253
6033,2006/11/27,4:54:09, 20-21.177N,119-39.305E,223.4,28.0229,34.1274
6034,2006/11/27,4:55:09, 20-21.030N,119-39.154E,225.6,28.0303,34.1335
6035,2006/11/27,4:56:09, 20-20.882N,119-39.006E,220.5,28.0428,34.1408
6036,2006/11/27,4:57:09, 20-20.734N,119-38.856E,223.9,28.0687,34.1466
6037,2006/11/27,4:58:09, 20-20.586N,119-38.706E,220,28.098,34.1499
6038,2006/11/27,4:59:09, 20-20.439N,119-38.554E,221,28.1158,34.1541
6039,2006/11/27,5:00:09, 20-20.291N,119-38.405E,226.1,28.1281,34.1553
6040,2006/11/27,5:01:09, 20-20.143N,119-38.255E,225.9,28.1378,34.159
6041,2006/11/27,5:02:09, 20-19.995N,119-38.102E,226.4,28.1463,34.1629
6042,2006/11/27,5:03:09, 20-19.846N,119-37.949E,223.7,28.1694,34.1616
6043,2006/11/27,5:04:09, 20-19.698N,119-37.798E,222.7,28.187,34.1536
6044,2006/11/27,5:05:09, 20-19.548N,119-37.648E,223.5,28.2077,34.1452
6045,2006/11/27,5:06:09, 20-19.398N,119-37.495E,221.6,28.2285,34.1365
6046,2006/11/27,5:07:09, 20-19.250N,119-37.341E,228,28.2478,34.1251
6047,2006/11/27,5:08:09, 20-19.103N,119-37.187E,222,28.2608,34.1115
6048,2006/11/27,5:09:09, 20-18.953N,119-37.034E,225.4,28.2746,34.1016
6049,2006/11/27,5:10:09, 20-18.802N,119-36.883E,223.9,28.2847,34.0953
6050,2006/11/27,5:11:09, 20-18.654N,119-36.730E,223.7,28.3044,34.0904
6051,2006/11/27,5:12:09, 20-18.505N,119-36.577E,224.4,28.3237,34.0788
6052,2006/11/27,5:13:09, 20-18.355N,119-36.425E,222.3,28.3417,34.0657
6053,2006/11/27,5:14:09, 20-18.207N,119-36.274E,225.7,28.3628,34.0566
6054,2006/11/27,5:15:09, 20-18.061N,119-36.120E,222.7,28.3885,34.0464
6055,2006/11/27,5:16:09, 20-17.916N,119-35.968E,225.1,28.4039,34.0315
6056,2006/11/27,5:17:09, 20-17.768N,119-35.818E,225,28.4232,34.0197
6057,2006/11/27,5:18:09, 20-17.620N,119-35.665E,223,28.4468,34.0083
6058,2006/11/27,5:19:09, 20-17.472N,119-35.510E,223.5,28.4702,33.9926
6059,2006/11/27,5:20:09, 20-17.326N,119-35.353E,223.1,28.4947,33.9735
6060,2006/11/27,5:21:09, 20-17.177N,119-35.195E,225.3,28.5157,33.9526
6061,2006/11/27,5:22:09, 20-17.029N,119-35.040E,227.9,28.5434,33.9317
6062,2006/11/27,5:23:09, 20-16.881N,119-34.881E,225.5,28.577,33.9125
6063,2006/11/27,5:24:09, 20-16.733N,119-34.720E,225.2,28.6092,33.8905
6064,2006/11/27,5:25:09, 20-16.584N,119-34.560E,226.8,28.642,33.8688
6065,2006/11/27,5:26:09, 20-16.434N,119-34.400E,226.8,28.6749,33.8482
6066,2006/11/27,5:27:09, 20-16.285N,119-34.239E,226.2,28.7083,33.8291
6067,2006/11/27,5:28:09, 20-16.134N,119-34.079E,226.1,28.7303,33.8048
6068,2006/11/27,5:29:09, 20-15.983N,119-33.918E,226.4,28.7612,33.787
6069,2006/11/27,5:30:09, 20-15.831N,119-33.759E,227.3,28.7884,33.7734
6070,2006/11/27,5:31:09, 20-15.680N,119-33.598E,225.4,28.8161,33.7608
6071,2006/11/27,5:32:09, 20-15.529N,119-33.436E,224.8,28.8269,33.7467
6072,2006/11/27,5:33:09, 20-15.379N,119-33.273E,223.2,28.8401,33.7381
6073,2006/11/27,5:34:09, 20-15.228N,119-33.110E,225.5,28.8569,33.7272
6074,2006/11/27,5:35:09, 20-15.077N,119-32.947E,223.9,28.8823,33.7177
6075,2006/11/27,5:36:09, 20-14.926N,119-32.783E,226.3,28.8989,33.7033
6076,2006/11/27,5:37:09, 20-14.776N,119-32.623E,227.2,28.9038,33.6957
6077,2006/11/27,5:38:09, 20-14.627N,119-32.465E,225.5,28.9086,33.6885
6078,2006/11/27,5:39:09, 20-14.479N,119-32.309E,223.8,28.9226,33.682
6079,2006/11/27,5:40:09, 20-14.330N,119-32.153E,225.4,28.9328,33.6791
6080,2006/11/27,5:41:09, 20-14.182N,119-31.999E,226.6,28.9125,33.6776
6081,2006/11/27,5:42:09, 20-14.035N,119-31.843E,226.3,28.8849,33.6863
6082,2006/11/27,5:43:09, 20-13.885N,119-31.686E,227.4,28.8559,33.6913
6083,2006/11/27,5:44:09, 20-13.738N,119-31.530E,226.8,28.8265,33.6867
6084,2006/11/27,5:45:09, 20-13.594N,119-31.376E,225.2,28.8284,33.6731
6085,2006/11/27,5:46:09, 20-13.448N,119-31.221E,226.8,28.8184,33.6602
6086,2006/11/27,5:47:09, 20-13.302N,119-31.066E,226.5,28.8145,33.6484
6087,2006/11/27,5:48:09, 20-13.159N,119-30.911E,223,28.8233,33.6392
6088,2006/11/27,5:49:09, 20-13.016N,119-30.757E,224.4,28.8315,33.6337
6089,2006/11/27,5:50:09, 20-12.876N,119-30.606E,226,28.8518,33.6292
6090,2006/11/27,5:51:09, 20-12.733N,119-30.451E,225.3,28.8558,33.6303
6091,2006/11/27,5:52:09, 20-12.592N,119-30.297E,226.9,28.8575,33.6294
6092,2006/11/27,5:53:09, 20-12.450N,119-30.142E,225,28.8377,33.6344
6093,2006/11/27,5:54:09, 20-12.310N,119-29.987E,224.6,28.8236,33.6399
6094,2006/11/27,5:55:09, 20-12.162N,119-29.843E,223.8,28.8243,33.6453
6095,2006/11/27,5:56:09, 20-12.015N,119-29.693E,223,28.8211,33.6484
6096,2006/11/27,5:57:09, 20-11.870N,119-29.547E,222.3,28.8387,33.6491
6097,2006/11/27,5:58:09, 20-11.725N,119-29.399E,222.8,28.8453,33.65
6098,2006/11/27,5:59:09, 20-11.581N,119-29.251E,225.7,28.8459,33.6512
6099,2006/11/27,6:00:09, 20-11.435N,119-29.101E,223.8,28.8361,33.6492
6100,2006/11/27,6:01:09, 20-11.290N,119-28.952E,225.2,28.8269,33.6463
6101,2006/11/27,6:02:09, 20-11.146N,119-28.802E,223.5,28.8208,33.6426
6102,2006/11/27,6:03:09, 20-11.002N,119-28.650E,225.3,28.8232,33.6391
6103,2006/11/27,6:04:09, 20-10.857N,119-28.499E,222.3,28.8333,33.6367
6104,2006/11/27,6:05:09, 20-10.709N,119-28.353E,221.6,28.8149,33.6351
6105,2006/11/27,6:06:09, 20-10.561N,119-28.205E,223,28.8077,33.6318
6106,2006/11/27,6:07:09, 20-10.413N,119-28.055E,223.8,28.8195,33.6298
6107,2006/11/27,6:08:09, 20-10.264N,119-27.907E,223.8,28.8239,33.6289
6108,2006/11/27,6:09:09, 20-10.116N,119-27.756E,222.4,28.8288,33.6285
6109,2006/11/27,6:10:09, 20-09.967N,119-27.606E,224.3,28.8472,33.6281
6110,2006/11/27,6:11:09, 20-09.817N,119-27.456E,225.1,28.8656,33.6284
6111,2006/11/27,6:12:09, 20-09.664N,119-27.309E,221,28.8636,33.6295
6112,2006/11/27,6:13:09, 20-09.513N,119-27.163E,224.4,28.8618,33.6297
6113,2006/11/27,6:14:09, 20-09.358N,119-27.019E,221.8,28.8772,33.63
6114,2006/11/27,6:15:09, 20-09.204N,119-26.875E,222.2,28.8814,33.6316
6115,2006/11/27,6:16:09, 20-09.049N,119-26.734E,221.9,28.8685,33.6345
6116,2006/11/27,6:17:09, 20-08.896N,119-26.591E,217.8,28.8557,33.6358
6117,2006/11/27,6:18:09, 20-08.742N,119-26.448E,220.6,28.8514,33.6383
6118,2006/11/27,6:19:09, 20-08.588N,119-26.306E,218.4,28.8676,33.6387
6119,2006/11/27,6:20:09, 20-08.434N,119-26.159E,222.7,28.8526,33.642
6120,2006/11/27,6:21:09, 20-08.279N,119-26.013E,219.5,28.8612,33.6427
6121,2006/11/27,6:22:09, 20-08.125N,119-25.865E,221.1,28.858,33.6447
6122,2006/11/27,6:23:09, 20-07.970N,119-25.716E,221.7,28.868,33.6455
6123,2006/11/27,6:24:09, 20-07.817N,119-25.569E,220.8,28.8778,33.6461
6124,2006/11/27,6:25:09, 20-07.664N,119-25.424E,223.5,28.8818,33.6473
6125,2006/11/27,6:26:09, 20-07.512N,119-25.277E,220.3,28.879,33.6461
6126,2006/11/27,6:27:09, 20-07.361N,119-25.127E,222.3,28.8735,33.6458
6127,2006/11/27,6:28:09, 20-07.209N,119-24.977E,225.4,28.8627,33.6447
6128,2006/11/27,6:29:09, 20-07.055N,119-24.824E,222.9,28.8661,33.6429
6138,2006/11/27,6:39:09, 20-05.522N,119-23.389E,219.2,28.9044,33.6476
6139,2006/11/27,6:40:09, 20-05.348N,119-23.293E,218.4,28.9072,33.6487
6140,2006/11/27,6:41:09, 20-05.188N,119-23.168E,220.2,28.9108,33.6502
6141,2006/11/27,6:42:09, 20-05.032N,119-23.035E,217.5,28.8979,33.6502
6142,2006/11/27,6:43:09, 20-04.875N,119-22.899E,219.9,28.8674,33.6517
6143,2006/11/27,6:44:09, 20-04.718N,119-22.763E,218,28.8719,33.6526
6144,2006/11/27,6:45:09, 20-04.563N,119-22.626E,221.4,28.8717,33.6553
6145,2006/11/27,6:46:09, 20-04.406N,119-22.485E,220,28.8733,33.6551
6146,2006/11/27,6:47:09, 20-04.246N,119-22.346E,219,28.8899,33.6557
6147,2006/11/27,6:48:09, 20-04.082N,119-22.211E,220.7,28.8719,33.6597
6148,2006/11/27,6:49:09, 20-03.922N,119-22.073E,219.7,28.847,33.6602
6149,2006/11/27,6:50:09, 20-03.764N,119-21.939E,218.2,28.8426,33.6624
6150,2006/11/27,6:51:09, 20-03.605N,119-21.808E,219.7,28.8311,33.6628
6151,2006/11/27,6:52:09, 20-03.450N,119-21.670E,223.7,28.8135,33.6643
6152,2006/11/27,6:53:09, 20-03.298N,119-21.528E,221.9,28.7928,33.6651
6153,2006/11/27,6:54:09, 20-03.144N,119-21.384E,221.8,28.7445,33.6637
6154,2006/11/27,6:55:09, 20-02.988N,119-21.243E,219.5,28.716,33.662
6155,2006/11/27,6:56:09, 20-02.832N,119-21.105E,220,28.708,33.6601
6156,2006/11/27,6:57:09, 20-02.679N,119-20.966E,219.1,28.6883,33.6592
6157,2006/11/27,6:58:09, 20-02.525N,119-20.831E,220.4,28.6572,33.6576
6158,2006/11/27,6:59:09, 20-02.372N,119-20.696E,218.7,28.6391,33.6566
6159,2006/11/27,7:00:09, 20-02.218N,119-20.563E,219.7,28.6441,33.6556
6160,2006/11/27,7:01:09, 20-02.070N,119-20.424E,223.1,28.6261,33.6557
6161,2006/11/27,7:02:09, 20-01.920N,119-20.284E,219.2,28.6204,33.6555
6162,2006/11/27,7:03:09, 20-01.769N,119-20.140E,222.5,28.5999,33.655
6163,2006/11/27,7:04:09, 20-01.619N,119-19.999E,221.6,28.5803,33.655
6164,2006/11/27,7:05:09, 20-01.467N,119-19.858E,221.6,28.59,33.6546
6165,2006/11/27,7:06:09, 20-01.317N,119-19.716E,221.2,28.5665,33.6554
6166,2006/11/27,7:07:09, 20-01.167N,119-19.575E,221.2,28.5767,33.6555
6167,2006/11/27,7:08:09, 20-01.017N,119-19.436E,222.1,28.5901,33.6558
6168,2006/11/27,7:09:09, 20-00.874N,119-19.293E,222.6,28.5771,33.6571
6169,2006/11/27,7:10:09, 20-00.731N,119-19.153E,222.8,28.5633,33.6582
6170,2006/11/27,7:11:09, 20-00.591N,119-19.012E,224.4,28.5339,33.6599
6171,2006/11/27,7:12:09, 20-00.448N,119-18.876E,225.4,28.513,33.6616
6172,2006/11/27,7:13:09, 20-00.307N,119-18.739E,223.6,28.5008,33.6635
6173,2006/11/27,7:14:09, 20-00.166N,119-18.603E,222.6,28.4845,33.6648
6174,2006/11/27,7:15:09, 20-00.023N,119-18.467E,221.5,28.4661,33.6658
6175,2006/11/27,7:16:09, 19-59.880N,119-18.329E,220.1,28.4516,33.6669
6176,2006/11/27,7:17:09, 19-59.738N,119-18.188E,222.2,28.468,33.6679
6177,2006/11/27,7:18:09, 19-59.595N,119-18.051E,219.4,28.4503,33.669
6178,2006/11/27,7:19:09, 19-59.452N,119-17.916E,222.7,28.4314,33.6701
6179,2006/11/27,7:20:09, 19-59.309N,119-17.779E,220.5,28.4261,33.6716
6180,2006/11/27,7:21:09, 19-59.167N,119-17.644E,220,28.4403,33.6731
6181,2006/11/27,7:22:09, 19-59.024N,119-17.509E,222.1,28.4447,33.674
6182,2006/11/27,7:23:09, 19-58.879N,119-17.375E,223.2,28.4326,33.6751
6183,2006/11/27,7:24:09, 19-58.735N,119-17.240E,223.8,28.4079,33.6756
6184,2006/11/27,7:25:09, 19-58.591N,119-17.106E,222.5,28.4287,33.6762
6185,2006/11/27,7:26:09, 19-58.446N,119-16.971E,219.9,28.4262,33.676
6186,2006/11/27,7:27:09, 19-58.302N,119-16.834E,222.7,28.4345,33.6753
6187,2006/11/27,7:28:09, 19-58.156N,119-16.701E,221.4,28.4453,33.6744
6188,2006/11/27,7:29:09, 19-58.012N,119-16.569E,218.3,28.4504,33.6745
6189,2006/11/27,7:30:09, 19-57.867N,119-16.437E,218.3,28.4558,33.6741
6190,2006/11/27,7:31:09, 19-57.722N,119-16.305E,220.3,28.4486,33.6734
6191,2006/11/27,7:32:09, 19-57.577N,119-16.173E,220.1,28.4539,33.6725
6192,2006/11/27,7:33:09, 19-57.431N,119-16.042E,219.4,28.4642,33.6722
6193,2006/11/27,7:34:09, 19-57.286N,119-15.910E,222.8,28.4772,33.6721
6194,2006/11/27,7:35:09, 19-57.140N,119-15.778E,220.7,28.4621,33.6718
6195,2006/11/27,7:36:09, 19-56.994N,119-15.645E,222.2,28.4294,33.6722
6196,2006/11/27,7:37:09, 19-56.847N,119-15.511E,222.5,28.417,33.672
6197,2006/11/27,7:38:09, 19-56.703N,119-15.372E,223.8,28.4015,33.6722
6198,2006/11/27,7:39:09, 19-56.561N,119-15.233E,222.6,28.3943,33.6732
6199,2006/11/27,7:40:09, 19-56.421N,119-15.094E,222.4,28.4043,33.6745
6200,2006/11/27,7:41:09, 19-56.281N,119-14.959E,222.9,28.404,33.6768
6201,2006/11/27,7:42:09, 19-56.142N,119-14.825E,223.7,28.3889,33.6787
6202,2006/11/27,7:43:09, 19-56.005N,119-14.691E,224,28.3812,33.6817
6203,2006/11/27,7:44:09, 19-55.870N,119-14.556E,222.6,28.3528,33.6862
6204,2006/11/27,7:45:09, 19-55.732N,119-14.423E,222.8,28.3318,33.6905
6205,2006/11/27,7:46:09, 19-55.593N,119-14.292E,222.2,28.3062,33.6958
6206,2006/11/27,7:47:09, 19-55.457N,119-14.157E,220,28.283,33.7008
6207,2006/11/27,7:48:09, 19-55.318N,119-14.025E,223.3,28.2815,33.7062
6208,2006/11/27,7:49:09, 19-55.180N,119-13.891E,223.6,28.2958,33.711
6209,2006/11/27,7:50:09, 19-55.041N,119-13.759E,221.1,28.3051,33.7142
6210,2006/11/27,7:51:09, 19-54.899N,119-13.627E,221,28.2935,33.7182
6211,2006/11/27,7:52:09, 19-54.762N,119-13.493E,223.2,28.3148,33.722
6212,2006/11/27,7:53:09, 19-54.620N,119-13.362E,222.6,28.2996,33.7248
6213,2006/11/27,7:54:09, 19-54.482N,119-13.230E,222.1,28.2934,33.7318
6214,2006/11/27,7:55:09, 19-54.346N,119-13.097E,220.9,28.2623,33.739
6215,2006/11/27,7:56:09, 19-54.210N,119-12.968E,220.8,28.2332,33.7453
6216,2006/11/27,7:57:09, 19-54.075N,119-12.837E,221.1,28.2135,33.7489
6217,2006/11/27,7:58:09, 19-53.939N,119-12.705E,224.9,28.1867,33.7502
6218,2006/11/27,7:59:09, 19-53.802N,119-12.573E,221.1,28.148,33.7507
6219,2006/11/27,8:00:09, 19-53.663N,119-12.439E,222.9,28.1099,33.7531
6220,2006/11/27,8:01:09, 19-53.523N,119-12.306E,221.2,28.1152,33.7564
6221,2006/11/27,8:02:09, 19-53.383N,119-12.175E,220.6,28.1111,33.7595
6222,2006/11/27,8:03:09, 19-53.243N,119-12.043E,220.2,28.118,33.7608
6223,2006/11/27,8:04:09, 19-53.102N,119-11.908E,220.9,28.1013,33.7619
6224,2006/11/27,8:05:09, 19-52.960N,119-11.776E,224,28.0893,33.7659
6225,2006/11/27,8:06:09, 19-52.817N,119-11.642E,220,28.0971,33.7707
6226,2006/11/27,8:07:09, 19-52.673N,119-11.506E,220.6,28.098,33.7754
6227,2006/11/27,8:08:09, 19-52.528N,119-11.370E,222.2,28.0966,33.7797
6228,2006/11/27,8:09:09, 19-52.381N,119-11.235E,222.9,28.1005,33.7849
6229,2006/11/27,8:10:09, 19-52.235N,119-11.100E,220.5,28.1151,33.7915
6230,2006/11/27,8:11:09, 19-52.089N,119-10.965E,218.3,28.1264,33.7979
6231,2006/11/27,8:12:09, 19-51.943N,119-10.830E,218.9,28.0989,33.803
6232,2006/11/27,8:13:09, 19-51.798N,119-10.695E,223.3,28.0806,33.809
6233,2006/11/27,8:14:09, 19-51.654N,119-10.560E,221.1,28.0485,33.811
6234,2006/11/27,8:15:09, 19-51.509N,119-10.428E,221.1,28.0451,33.8099
6235,2006/11/27,8:16:09, 19-51.365N,119-10.293E,221,28.0296,33.8078
6236,2006/11/27,8:17:09, 19-51.221N,119-10.160E,220.4,28.0289,33.8061
6237,2006/11/27,8:18:09, 19-51.076N,119-10.026E,219,28.0281,33.8038
6238,2006/11/27,8:19:09, 19-50.931N,119-09.891E,220.5,28.0249,33.8022
6239,2006/11/27,8:20:09, 19-50.785N,119-09.758E,221.4,28.0192,33.802
6240,2006/11/27,8:21:09, 19-50.640N,119-09.626E,218.5,28.0143,33.8026
6241,2006/11/27,8:22:09, 19-50.499N,119-09.494E,220.9,28.0009,33.8048
6242,2006/11/27,8:23:09, 19-50.358N,119-09.365E,219.9,28.0018,33.8079